FW1302 Weather Reports


time (UTC)temp
F
wind
direction
speed
knots
gust
knots
rain 1hr
in
rain 24hr
in
rain mn
in
humidity
%
barometer
mb
20260831072327 58 67 0.9 0.9 0.00 0.00 0.00 76 1025.8
20260831071328 58 67 0.0 0.0 0.00 0.00 0.00 75 1025.7
20260831070326 58 67 0.0 0.0 0.00 0.00 0.00 73 1025.8
20260831065410 58 67 0.0 0.0 0.00 0.00 0.00 74 1025.8
20260831064411 58 67 0.0 0.0 0.00 0.00 0.00 73 1025.9
20260831061512 58 67 0.0 0.0 0.00 0.00 0.00 72 1025.9
20260831060511 59 67 0.0 0.0 0.00 0.00 0.00 72 1025.9
20260831054610 59 67 0.0 0.0 0.00 0.00 0.00 71 1026.1
20260831051611 60 67 0.0 0.0 0.00 0.00 0.00 68 1026.2
20260831050710 61 67 0.0 0.0 0.00 0.00 0.00 67 1026.3
20260831045809 62 45 0.0 0.0 0.00 0.00 0.00 66 1026.3
20260831044908 62 45 1.7 1.7 0.00 0.00 0.00 65 1026.2
20260831044811 62 45 0.9 1.7 0.00 0.00 0.00 66 1026.3
20260831041910 65 315 0.0 0.9 0.00 0.00 0.00 66 1026.3
20260831040911 65 315 1.7 3.5 0.00 0.00 0.00 64 1026.2
20260831035912 66 270 0.9 1.7 0.00 0.00 0.00 60 1026.2
20260831034911 66 225 0.9 1.7 0.00 0.00 0.00 57 1026.2
20260831033911 66 157 0.0 0.0 0.00 0.00 0.00 56 1026.2
20260831033010 67 225 4.3 5.2 0.00 0.00 0.00 57 1026.1
20260831032010 67 212 3.5 7.0 0.00 0.00 0.00 55 1026.0
20260831031108 67 211 3.5 8.7 0.00 0.00 0.00 55 1026.0
20260831030109 68 218 3.5 5.2 0.00 0.00 0.00 55 1025.9
20260831024109 68 225 6.1 7.8 0.00 0.00 0.00 51 1025.9
20260831023110 69 216 8.7 12.2 0.00 0.00 0.00 50 1025.9
20260831022208 69 225 8.7 12.2 0.00 0.00 0.00 50 1026.0
20260831021209 70 229 8.7 12.2 0.00 0.00 0.00 48 1025.9
20260831015308 70 231 6.1 12.2 0.00 0.00 0.00 47 1025.9
20260831013309 71 227 8.7 13.0 0.00 0.00 0.00 47 1026.1
20260831012408 71 224 7.0 12.2 0.00 0.00 0.00 45 1026.0
20260831011410 71 224 6.1 10.4 0.00 0.00 0.00 45 1026.0
20260831010411 71 225 8.7 11.3 0.00 0.00 0.00 45 1026.1
20260831005509 71 225 10.4 12.2 0.00 0.00 0.00 43 1026.2
20260831004511 71 228 8.7 11.3 0.00 0.00 0.00 43 1026.3
20260831003609 71 230 7.8 11.3 0.00 0.00 0.00 44 1026.3
20260831002708 71 228 7.8 13.0 0.00 0.00 0.00 43 1026.3
20260831001709 71 227 7.8 11.3 0.00 0.00 0.00 43 1026.4
20260831000711 70 226 13.0 15.6 0.00 0.00 0.00 43 1026.4
20260830235810 70 225 12.2 16.5 0.00 0.00 0.00 43 1026.5
20260830234811 71 196 12.2 16.5 0.00 0.00 0.00 43 1026.6
20260830233810 70 223 7.0 9.6 0.00 0.00 0.00 43 1026.7
20260830232908 70 221 7.0 11.3 0.00 0.00 0.00 43 1026.8
20260830231911 70 215 7.8 13.0 0.00 0.00 0.00 43 1026.8
20260830231008 70 205 7.8 10.4 0.00 0.00 0.00 45 1027.0
20260830230010 69 223 7.8 11.3 0.00 0.00 0.00 44 1027.2
20260830225008 69 215 11.3 14.8 0.00 0.00 0.00 44 1027.2
20260830224010 69 218 9.6 13.0 0.00 0.00 0.00 45 1027.4
20260830223008 69 223 12.2 17.4 0.00 0.00 0.00 45 1027.6
20260830222011 68 219 11.3 15.6 0.00 0.00 0.00 46 1027.8
20260830220109 68 211 10.4 16.5 0.00 0.00 0.00 46 1027.9
20260830215209 68 215 8.7 11.3 0.00 0.00 0.00 46 1028.1
20260830214211 68 212 10.4 14.8 0.00 0.00 0.00 47 1028.5
20260830213210 67 211 12.2 14.8 0.00 0.00 0.00 47 1028.6
20260830212211 67 215 11.3 13.9 0.00 0.00 0.00 48 1028.6
20260830211212 67 220 9.6 13.0 0.00 0.00 0.00 49 1028.9
20260830210211 66 214 8.7 12.2 0.00 0.00 0.00 49 1029.0
20260830210110 66 222 7.0 9.6 0.00 0.00 0.00 50 1028.9
20260830204109 65 215 12.2 17.4 0.00 0.00 0.00 52 1029.1
20260830203110 65 212 11.3 14.8 0.00 0.00 0.00 52 1029.4
20260830201110 65 213 11.3 14.8 0.00 0.00 0.00 51 1029.5
20260830200110 65 223 6.1 11.3 0.00 0.00 0.00 53 1029.7
20260830195110 65 212 8.7 18.2 0.00 0.00 0.00 52 1029.8
20260830194110 64 208 7.8 12.2 0.00 0.00 0.00 53 1029.9
20260830193208 64 206 11.3 14.8 0.00 0.00 0.00 53 1029.9
20260830192210 64 206 7.0 9.6 0.00 0.00 0.00 53 1030.1
20260830191210 63 213 9.6 14.8 0.00 0.00 0.00 55 1030.0
20260830191109 63 220 9.6 12.2 0.00 0.00 0.00 55 1030.2
20260830190109 63 215 10.4 15.6 0.00 0.00 0.00 55 1030.1
20260830184110 63 221 7.8 11.3 0.00 0.00 0.00 55 1030.5
20260830183110 62 225 6.1 10.4 0.00 0.00 0.00 55 1030.5
20260830182208 62 221 7.0 11.3 0.00 0.00 0.00 58 1030.4
20260830181210 62 227 7.8 11.3 0.00 0.00 0.00 60 1030.6
20260830180210 61 232 8.7 12.2 0.00 0.00 0.00 61 1030.6
20260830175308 61 215 7.0 13.9 0.00 0.00 0.00 62 1030.8
20260830174310 61 218 9.6 13.0 0.00 0.00 0.00 64 1030.6
20260830173308 60 209 3.5 7.8 0.00 0.00 0.00 63 1030.8
20260830172311 60 219 9.6 11.3 0.00 0.00 0.00 66 1030.8
20260830171312 60 233 8.7 12.2 0.00 0.00 0.00 65 1030.7
20260830164409 59 230 6.1 8.7 0.00 0.00 0.00 69 1030.9
20260830164311 59 225 7.0 7.8 0.00 0.00 0.00 68 1030.9
20260830163408 59 213 4.3 7.8 0.00 0.00 0.00 70 1031.1
20260830162408 58 210 4.3 10.4 0.00 0.00 0.00 72 1031.2
20260830161408 58 225 7.8 9.6 0.00 0.00 0.00 73 1031.2
20260830160507 57 225 5.2 7.0 0.00 0.00 0.00 74 1031.5
20260830154608 57 219 5.2 8.7 0.00 0.00 0.00 74 1031.5
20260830153610 57 202 4.3 8.7 0.00 0.00 0.00 75 1031.6
20260830152708 56 225 6.1 8.7 0.00 0.00 0.00 76 1031.6
20260830151709 56 225 4.3 7.0 0.00 0.00 0.00 78 1031.7
20260830150807 56 202 3.5 10.4 0.00 0.00 0.00 78 1031.8
20260830145808 55 213 2.6 3.5 0.00 0.00 0.00 80 1031.9
20260830144810 54 192 0.9 8.7 0.00 0.00 0.00 82 1031.8
20260830143810 54 90 0.9 3.5 0.00 0.00 0.00 82 1031.9
20260830141909 53 103 1.7 4.3 0.00 0.00 0.00 85 1031.9
20260830140909 52 90 0.9 2.6 0.00 0.00 0.00 86 1031.8
20260830140811 52 90 1.7 2.6 0.00 0.00 0.00 86 1031.8
20260830135811 51 99 2.6 5.2 0.00 0.01 0.00 86 1031.7
20260830134810 51 90 1.7 3.5 0.00 0.01 0.00 87 1031.5
20260830132912 49 50 0.9 2.6 0.00 0.01 0.00 86 1031.4
20260830132009 47 67 1.7 2.6 0.00 0.01 0.00 85 1031.5
20260830131010 46 67 0.9 1.7 0.00 0.01 0.00 85 1031.3
20260830125010 44 67 0.0 0.9 0.00 0.01 0.00 84 1031.3
20260830124009 54 67 0.9 1.7 0.00 0.01 0.00 83 1031.1
20260830121110 57 163 0.0 0.0 0.00 0.01 0.00 81 1031.2
20260830120209 57 270 4.3 6.1 0.00 0.01 0.00 81 1031.0
20260830115211 57 225 2.6 4.3 0.00 0.01 0.00 81 1031.1
20260830114210 57 229 4.3 6.1 0.00 0.01 0.00 79 1031.0
20260830113208 57 230 4.3 6.1 0.00 0.01 0.00 79 1030.8
20260830112210 57 223 7.8 10.4 0.00 0.01 0.00 80 1030.8
20260830111307 57 224 7.0 11.3 0.00 0.01 0.00 80 1030.9
20260830105309 58 226 6.1 9.6 0.00 0.01 0.00 78 1030.9
20260830104310 58 226 7.8 12.2 0.00 0.01 0.00 78 1030.8
20260830103309 58 226 5.2 6.1 0.00 0.01 0.00 77 1030.7
20260830102310 58 223 5.2 7.8 0.00 0.01 0.00 77 1030.8
20260830101408 58 228 7.0 9.6 0.00 0.01 0.00 78 1030.8
20260830095411 58 224 4.3 7.8 0.00 0.01 0.00 77 1030.7
20260830093408 58 226 6.1 8.7 0.00 0.01 0.00 77 1030.7
20260830092508 58 259 3.5 5.2 0.00 0.01 0.00 77 1030.8
20260830091508 58 226 5.2 7.0 0.00 0.01 0.00 77 1030.7
20260830090510 58 241 1.7 3.5 0.00 0.01 0.00 77 1030.7
20260830085609 59 251 3.5 5.2 0.00 0.01 0.00 76 1030.7
20260830085508 59 238 4.3 5.2 0.00 0.01 0.00 76 1030.7
20260830084510 59 238 5.2 7.8 0.00 0.01 0.00 74 1030.7
20260830083510 59 227 4.3 5.2 0.00 0.01 0.00 73 1030.6
20260830082510 59 221 5.2 7.8 0.00 0.01 0.00 72 1030.8
20260830081508 59 211 2.6 6.1 0.00 0.01 0.00 72 1030.8
20260830080512 59 217 3.5 9.6 0.00 0.01 0.00 72 1030.8
20260830074609 59 228 3.5 5.2 0.00 0.01 0.00 71 1030.8